EW3791 Weather Reports


Display with metric or nautical units.
time (UTC)temp
F
wind
direction
speed
MPH
gust
MPH
rain 1hr
in
rain 24hr
in
rain mn
in
humidity
%
barometer
mb
20260510153027 81 68 4.0 11.0 0.00 0.26 0.00 84 1014.0
20260510151611 80 37 5.0 11.0 0.00 0.26 0.00 85 1014.0
20260510150048 80 64 5.0 9.0 0.00 0.26 0.00 84 1013.9
20260510144504 80 89 4.0 8.0 0.00 0.26 0.00 85 1013.8
20260510143056 79 105 3.0 11.0 0.00 0.26 0.00 88 1013.9
20260510141514 78 58 5.0 10.0 0.00 0.26 0.00 88 1013.9
20260510140100 78 95 3.0 8.0 0.00 0.26 0.00 91 1013.7
20260510134528 77 103 2.0 6.0 0.00 0.26 0.00 92 1013.5
20260510133109 76 65 3.0 7.0 0.00 0.26 0.00 92 1013.5
20260510131536 76 25 3.0 7.0 0.00 0.26 0.00 92 1013.3
20260510130014 76 38 0.0 1.0 0.00 0.26 0.00 92 1013.0
20260510124556 76 60 0.0 0.0 0.00 0.26 0.00 92 1012.7
20260510123015 76 127 0.0 0.0 0.00 0.26 0.00 92 1012.4
20260510121556 76 127 0.0 0.0 0.00 0.26 0.00 91 1012.1
20260510120035 76 128 0.0 0.0 0.00 0.26 0.00 91 1011.7
20260510114602 76 138 0.0 0.0 0.00 0.26 0.00 91 1011.3
20260510113035 75 138 1.0 5.0 0.00 0.26 0.00 91 1011.1
20260510111503 75 144 4.0 9.0 0.00 0.26 0.00 91 1010.8
20260510110043 75 155 2.0 12.0 0.00 0.26 0.00 91 1010.6
20260510104514 75 153 4.0 9.0 0.00 0.26 0.00 92 1010.5
20260510103054 75 162 2.0 7.0 0.00 0.26 0.00 91 1010.3
20260510101527 75 200 4.0 11.0 0.00 0.26 0.00 91 1010.2
20260510100109 75 216 3.0 11.0 0.00 0.26 0.00 92 1010.1
20260510094542 75 179 4.0 15.0 0.00 0.26 0.00 92 1009.9
20260510093018 75 158 5.0 11.0 0.00 0.26 0.00 93 1010.0
20260510091612 75 190 5.0 11.0 0.00 0.26 0.00 93 1009.9
20260510090043 75 146 2.0 5.0 0.00 0.26 0.00 93 1010.1
20260510084513 75 135 1.0 5.0 0.00 0.26 0.00 93 1010.1
20260510083114 75 144 0.0 4.0 0.00 0.26 0.00 92 1010.2
20260510081529 75 177 1.0 5.0 0.00 0.26 0.00 92 1010.1
20260510080110 75 186 3.0 9.0 0.00 0.26 0.00 91 1010.1
20260510074539 75 135 2.0 10.0 0.00 0.26 0.00 90 1010.1
20260510073008 75 138 5.0 12.0 0.00 0.26 0.00 89 1009.9
20260510071552 76 143 4.0 10.0 0.00 0.26 0.00 90 1010.1
20260510070030 76 231 6.0 12.0 0.00 0.26 0.00 91 1010.2
20260510064507 76 167 2.0 8.0 0.00 0.26 0.00 92 1010.1
20260510063049 76 138 5.0 14.0 0.00 0.26 0.00 92 1010.1
20260510061527 76 151 5.0 12.0 0.00 0.26 0.00 92 1010.1
20260510060101 76 172 5.0 11.0 0.00 0.26 0.00 92 1010.3
20260510054525 76 136 5.0 12.0 0.00 0.26 0.00 91 1010.3
20260510053117 76 131 8.0 14.0 0.00 0.26 0.00 91 1010.4
20260510051541 76 100 6.0 12.0 0.00 0.26 0.00 91 1010.6
20260510050000 76 179 6.0 14.0 0.00 0.26 0.26 91 1010.5
20260510044543 77 39 5.0 13.0 0.00 0.26 0.26 91 1010.7
20260510043010 76 101 5.0 14.0 0.00 0.26 0.26 90 1010.9
20260510041554 76 131 4.0 9.0 0.00 0.26 0.26 90 1011.2
20260510040020 76 122 4.0 10.0 0.00 0.26 0.26 90 1010.9
20260510034603 76 150 4.0 8.0 0.00 0.26 0.26 90 1010.6
20260510033036 76 96 4.0 12.0 0.00 0.26 0.26 90 1010.9
20260510031512 77 117 6.0 13.0 0.00 0.26 0.26 90 1010.9
20260510030054 77 86 7.0 16.0 0.00 0.26 0.26 90 1010.9
20260510024518 78 110 7.0 14.0 0.00 0.26 0.26 90 1010.6
20260510023101 79 121 7.0 15.0 0.00 0.26 0.26 86 1010.2
20260510021526 79 129 3.0 8.0 0.00 0.26 0.26 78 1009.8
20260510020108 77 148 5.0 10.0 0.00 0.26 0.26 84 1009.5
20260510014538 75 112 0.0 4.0 0.00 0.26 0.26 92 1008.8
20260510013013 75 314 0.0 3.0 0.00 0.26 0.26 92 1008.6
20260510011608 76 290 1.0 6.0 0.03 0.26 0.26 92 1007.9
20260510010029 76 302 0.0 0.0 0.12 0.26 0.26 92 1007.7
20260510004606 76 307 0.0 5.0 0.17 0.26 0.26 90 1007.3
20260510003036 75 97 4.0 8.0 0.22 0.25 0.25 89 1007.7
20260510001506 76 15 6.0 11.0 0.22 0.22 0.22 87 1007.9
20260510000050 77 53 2.0 13.0 0.14 0.14 0.14 83 1007.5
20260509234519 79 129 0.0 6.0 0.09 0.09 0.09 85 1007.6
20260509233104 85 242 4.0 10.0 0.03 0.03 0.03 73 1007.2
20260509231533 88 47 2.0 8.0 0.00 0.00 0.00 64 1007.0
20260509230006 88 90 2.0 7.0 0.00 0.00 0.00 62 1006.9
20260509224557 89 86 4.0 8.0 0.00 0.01 0.00 63 1006.8
20260509223030 90 108 1.0 5.0 0.00 0.01 0.00 61 1006.7
20260509221612 90 212 0.0 4.0 0.00 0.01 0.00 59 1006.7
20260509220048 90 188 2.0 5.0 0.00 0.01 0.00 59 1006.6
20260509214515 90 352 0.0 3.0 0.00 0.01 0.00 60 1006.6
20260509213116 89 328 3.0 10.0 0.00 0.01 0.00 62 1006.6
20260509211548 90 91 4.0 5.0 0.00 0.01 0.00 60 1006.6
20260509210106 90 316 2.0 7.0 0.00 0.01 0.00 61 1006.9
20260509204544 91 295 3.0 7.0 0.00 0.01 0.00 60 1007.0
20260509203019 89 352 2.0 7.0 0.00 0.01 0.00 63 1007.3
20260509201700 90 54 1.0 8.0 0.00 0.01 0.00 63 1007.3
20260509200023 88 309 5.0 10.0 0.00 0.01 0.00 63 1007.5
20260509194600 89 104 3.0 6.0 0.00 0.01 0.00 62 1007.7
20260509193029 88 348 2.0 7.0 0.00 0.01 0.00 64 1007.7
20260509191504 88 273 2.0 7.0 0.00 0.01 0.00 65 1008.0
20260509190048 88 352 2.0 5.0 0.00 0.01 0.00 67 1007.9
20260509184513 87 139 2.0 5.0 0.00 0.02 0.00 69 1008.2
20260509183057 86 219 1.0 5.0 0.00 0.02 0.00 71 1008.4
20260509181528 85 280 2.0 9.0 0.00 0.02 0.00 73 1008.7
20260509180107 84 182 1.0 7.0 0.00 0.02 0.00 77 1009.1
20260509174534 83 200 4.0 11.0 0.00 0.03 0.00 78 1009.2
20260509173003 82 172 4.0 9.0 0.00 0.03 0.00 79 1009.3
20260509171548 82 193 3.0 5.0 0.00 0.03 0.00 81 1009.7
20260509170016 81 237 2.0 5.0 0.00 0.03 0.00 82 1009.8
20260509164556 82 226 0.0 7.0 0.00 0.05 0.00 83 1009.8
20260509163024 81 271 1.0 3.0 0.00 0.05 0.00 83 1009.7
20260509161607 81 190 0.0 2.0 0.00 0.05 0.00 83 1009.8
20260509160039 81 148 0.0 0.0 0.00 0.05 0.00 85 1009.8
20260509154506 79 148 0.0 2.0 0.00 0.06 0.00 87 1009.7